OneWeb SL0006

operational
NORAD ID: 44061 Int'l Des: 2019-010 Owner: ONEWEB Country: UK Constellation: oneweb
LEOCIRCULARPOLARONEWEB_TYPE

About OneWeb SL0006

Description loading...

Live Position

Loading 3D Globe...

Upcoming Passes

Altitude History

Altitude vs Time

uPlot chart will show altitude changes over time

Two-Line Element Set

1 44061U 19010E 25303.26959284 -.00000019 00000-0 -84833-4 0 9996
2 44061 87.8966 305.0550 0002008 97.4338 262.7020 13.15548411321191
Epoch: Oct 30, 2025 • Age: 11 hours

Current Status

Altitude 1214.1 km
Velocity 7.25 km/s
Sub-Earth Point -30.42°S, 5.43°E
Launch Date Feb 27, 2019
Age 6.6 years
Type internet

Technical Details

Classification Payload
Mass 148.00 kg
Dry Mass 140.00 kg
Total Mass 148.00 kg
Length 1.30 m
Diameter 1.00 m
Span 5.00 m
Shape Trapezoid+2 pan
Manufacturer ADST
Bus Type ARROW
Phase Status In Orbit
Owner/State ONEWEB/UK

Large Constellations

Loading constellations...